{"data":{"norad_id":63734,"epoch":"2026-09-21T10:48:59.294592Z","epoch_age_seconds":122528,"freshness":"FRESH","line1":"1 63734U 25088L   26264.45068628  .00000644  00000+0  11346-3 0  9996","line2":"2 63734  51.9016 313.7080 0000174  12.1785 347.9181 14.79936426 76495","mean_motion":14.79936426,"eccentricity":1.74e-5,"inclination_deg":51.9016,"raan_deg":313.708,"arg_perigee_deg":12.1785,"mean_anomaly_deg":347.9181,"bstar":0.00011346,"rev_number":7649,"period_min":97.301476921685,"perigee_km":629.40288084726,"apogee_km":629.64674747839,"semimajor_km":7007.6618141628,"source":"CELESTRAK","updated_at":"2026-09-22T09:00:29.317839Z"}}